MPEC 2005-U69 : 2005 UU3

The following Minor Planet Electronic Circular may be linked-to from your own Web pages, but must not otherwise be redistributed electronically.


Read MPEC 2005-U68 Read MPEC 2005-U70


M.P.E.C. 2005-U69                                Issued 2005 Oct. 27, 16:58 UT

     The Minor Planet Electronic Circulars contain information on unusual
         minor planets and routine data on comets.  They are published
   on behalf of Commission 20 of the International Astronomical Union by the
          Minor Planet Center, Smithsonian Astrophysical Observatory,
                          Cambridge, MA 02138, U.S.A.

                  Supported in part by the Brinson Foundation
                  Supported in part by the TABASGO Foundation
             Prepared using the Tamkin Foundation Computer Network

                              MPC@CFA.HARVARD.EDU
          URL http://cfa-www.harvard.edu/iau/mpc.html  ISSN 1523-6714

                                   2005 UU3

Observations:
     K05U03U* C2005 10 25.32494 02 49 45.91 +15 33 17.8          20.4 V EU069G96
     K05U03U  C2005 10 25.33062 02 49 44.90 +15 33 21.9          21.0 V EU069G96
     K05U03U  C2005 10 25.33632 02 49 43.93 +15 33 25.9          20.9 V EU069G96
     K05U03U  C2005 10 25.34205 02 49 42.96 +15 33 30.4          21.2 V EU069G96
     K05U03U  C2005 10 25.35455 02 49 40.76 +15 33 38.8          21.1 V EU069G96
     K05U03U  C2005 10 25.36067 02 49 39.64 +15 33 43.0          21.1 V EU069G96
     K05U03U  C2005 10 25.36681 02 49 38.60 +15 33 47.2          21.0 V EU069G96
     K05U03U  C2005 10 25.37294 02 49 37.52 +15 33 51.4          20.9 V EU069G96
     K05U03U FC2005 10 25.95439 02 47 59.53 +15 40 38.4                 EU069J95
     K05U03U FC2005 10 25.97087 02 47 56.52 +15 40 49.6          21.0 R EU069J95
     K05U03U  C2005 10 27.32855 02 43 54.38 +15 57 16.7          22.0 V EU069G96
     K05U03U  C2005 10 27.33657 02 43 52.83 +15 57 21.9          22.1 V EU069G96
     K05U03U  C2005 10 27.38779 02 43 43.03 +15 57 59.2          21.5 V EU069G96
     K05U03U  C2005 10 27.38867 02 43 42.85 +15 57 59.9          20.9 V EU069G96
     K05U03U  C2005 10 27.38956 02 43 42.74 +15 58 00.6          21.4 V EU069G96
     K05U03U  C2005 10 27.39046 02 43 42.52 +15 58 01.6          21.2 V EU069G96

Observer details:
G96 Mt. Lemmon Survey.  Observers E. C. Beshore, E. J. Christensen.  Measurers
    E. C. Beshore, E. J. Christensen, G. J. Garradd, A. D. Grauer, R. E. Hill,
    R. A. Kowalski, S. M. Larson, R. H. McNaught.  1.5-m reflector + CCD.
J95 Great Shefford.  Observer P. Birtwhistle.  0.40-m f/6.0 Schmidt-Cassegrain
    + CCD.

Orbital elements:
2005 UU3
Epoch 2005 Aug. 18.0 TT = JDT 2453600.5                 MPC
M 247.57444              (2000.0)            P               Q
n   0.63827391     Peri.  127.50936     -0.94566307     -0.28452670
a   1.3359739      Node    36.72568     +0.14566893     -0.80344587
e   0.5219425      Incl.   15.25827     +0.29069214     -0.52299072
P   1.54           H   21.6           G   0.15           U   9
Residuals in seconds of arc
051025 G96  0.0   0.3-    051025 G96  0.1-  0.3-    051027 G96  0.1-  0.3-
051025 G96  0.3-  0.2-    051025 G96  0.3-  0.4-    051027 G96  0.3-  0.2-
051025 G96  0.1+  0.2-    051025 J95  0.8+  0.8+    051027 G96  0.6+  0.1-
051025 G96  0.5+  0.2+    051025 J95  0.5-  0.1+    051027 G96  0.1-  0.2+
051025 G96  0.2+  0.1-    051027 G96  0.0   0.2+
051025 G96  0.6-  0.2-    051027 G96  0.2-  0.4-

Ephemeris:
2005 UU3                 a,e,i = 1.34, 0.52, 15                  q = 0.6387
Date    TT    R. A. (2000) Decl.     Delta      r     Elong.  Phase     V
2005 10 27    02 44.91   +15 53.4    0.437    1.426   169.9     7.0    21.1
2005 11 06    02 07.37   +18 03.6    0.363    1.351   170.9     6.7    20.6
2005 11 16    01 16.36   +20 13.0    0.317    1.272   149.7    23.1    20.7
2005 11 26    00 18.69   +21 47.1    0.296    1.189   127.2    41.4    20.9
2005 12 06    23 24.02   +22 35.0    0.293    1.102   105.8    59.4    21.3
2005 12 16    22 36.29   +22 51.0    0.299    1.012    86.7    76.1    21.7

Kyle E. Smalley              (C) Copyright 2005 MPC           M.P.E.C. 2005-U69

Read MPEC 2005-U68 Read MPEC 2005-U70


Our Web policy. Index to the CBAT/MPC/ICQ pages.

MPC

Valid HTML 4.01!